#timestamp,LO_Frequency,Hit 
1498453215.4,286047006.6,N
1498453235.3,286047007.0,N
1498453255.1,286047009.1,N
1498453256.0,286047009.1,N
1498453275.8,286047006.3,N
1498453295.7,286047008.9,N
1498453315.5,286047008.2,N
1498453335.3,286047007.4,N
1498453355.2,286047004.6,N
1498453375.0,286047009.1,N
1498453375.9,286047009.1,N
1498453395.8,286047006.6,N
1498453415.6,286047006.6,N
1498453435.4,286047006.5,N
1498453455.3,286047007.2,N
1498453475.1,286047007.4,N
1498453495.8,286047007.4,N
1498453515.7,286047004.9,N
1498453535.5,286047006.1,N
1498453555.4,286047007.4,N
1498453575.2,286047006.2,N
1498453595.0,286047007.4,N
1498453595.9,286047007.4,N
1498453615.8,286047004.9,N
1498453635.6,286047007.4,N
1498453655.4,286047006.8,N
1498453675.3,286047006.7,N
1498453695.1,286047006.5,N
1498453715.9,286047007.2,N
1498453735.7,286047006.2,N
1498453755.5,286047006.1,N
1498453775.4,286047006.4,N
1498453795.2,286047007.9,N
1498453815.0,286047008.8,N
1498453815.9,286047008.8,N
1498453835.8,286047008.3,N
1498453855.6,286047008.7,N
1498453875.5,286047007.6,N
1498453895.3,286047007.1,N
1498453915.1,286047005.2,N
1498453935.9,286047006.9,N
1498453955.7,286047006.4,N
1498453975.5,286047006.3,N
1498453995.4,286047007.3,N
1498454015.2,286047006.7,N
1498454035.1,286047006.7,N
1498454036.0,286047006.7,N
1498454055.8,286047006.7,N
1498454075.6,286047006.6,N
1498454095.5,286047008.4,N
1498454115.3,286047009.6,N
1498454135.2,286047012.2,N
1498454155.9,286047008.5,N
1498454175.7,286047008.6,N
1498454195.6,286047008.8,N
1498454215.4,286047008.2,N
1498454235.2,286047008.1,N
1498454255.1,286047010.6,N
1498454256.0,286047010.6,N
1498454275.8,286047008.6,N
1498454295.7,286047012.0,N
1498454315.5,286047009.4,N
1498454335.3,286047012.1,N
1498454355.2,286047012.1,N
1498454375.0,286047011.5,N
1498454375.9,286047011.5,N
1498454395.7,286047013.8,N
1498454415.6,286047012.5,N
1498454435.4,286047012.5,N
1498454455.3,286047012.4,N
1498454475.1,286047013.9,N
1498454476.0,286047013.9,N
1498454495.8,286047015.5,N
1498454515.7,286047012.8,N
1498454535.5,286047012.9,N
1498454555.3,286047015.2,N
1498454575.2,286047014.5,N
1498454595.0,286047016.9,N
1498454626.0,286047016.9,Y
1498454635.9,286047008.2,N
1498454655.7,286046999.4,N
1498454675.5,286046998.6,N
1498454695.4,286047000.4,N
1498454715.2,286046998.4,N
1498454735.1,286047001.2,N
1498454736.0,286047001.2,N
1498454755.8,286046998.2,N
1498454775.6,286046998.2,N
1498454795.5,286046999.0,N
1498454815.3,286047001.1,N
1498454835.2,286047002.8,N
1498454855.9,286047002.0,N
1498454875.7,286046999.9,N
1498454895.6,286046999.7,N
1498454915.4,286047000.5,N
1498454935.2,286046998.2,N
1498454955.1,286046996.9,N
1498454956.0,286046996.9,N
1498454975.8,286046998.8,N
1498454995.7,286047002.8,N
1498455015.5,286047000.4,N
1498455035.3,286046999.2,N
1498455055.2,286046998.3,N
1498455075.0,286046998.3,N
1498455075.9,286046998.3,N
1498455095.7,286046998.1,N
1498455115.6,286047000.8,N
1498455135.4,286047003.7,N
1498455155.3,286047003.8,N
1498455175.1,286047002.9,N
1498455176.0,286047002.9,N
1498455195.8,286047001.3,N
1498455215.7,286047002.3,N
1498455235.5,286046998.2,N
1498455255.3,286046999.7,N
1498455275.2,286047001.3,N
1498455295.0,286047001.7,N
1498455295.9,286047001.7,N
1498455315.8,286047004.2,N
1498455335.6,286047006.0,N
1498455355.4,286047006.7,N
1498455375.3,286047005.4,N
1498455395.1,286047005.8,N
1498455415.8,286047005.0,N
1498455435.7,286047003.2,N
1498455455.5,286047006.2,N
1498455475.4,286047007.2,N
1498455495.2,286047004.6,N
1498455515.0,286047006.6,N
1498455515.9,286047006.6,N
1498455535.8,286047006.0,N
1498455555.6,286047003.0,N
1498455575.4,286047006.8,N
1498455595.3,286047006.4,N
1498455615.1,286047010.5,N
1498455635.9,286047006.3,N
1498455655.7,286047008.5,N
1498455675.5,286047009.2,N
1498455695.4,286047006.5,N
1498455715.2,286047010.4,N
1498455735.1,286047009.3,N
1498455736.0,286047009.3,N
1498455755.8,286047010.7,N
1498455775.6,286047011.9,N
1498455795.5,286047010.3,N
1498455815.3,286047012.2,N
1498455835.1,286047010.0,N
1498455855.9,286047010.1,N
1498455875.7,286047009.6,N
1498455895.6,286047012.1,N
1498455915.4,286047010.0,N
1498455935.2,286047008.4,N
1498455955.1,286047010.3,N
1498455956.0,286047010.3,N
1498455975.8,286047007.8,N
1498455995.7,286047008.8,N
1498456015.5,286047006.5,N
1498456035.3,286047008.3,N
1498456055.2,286047008.1,N
1498456075.0,286047008.4,N
1498456075.9,286047008.4,N
1498456095.7,286047007.7,N
1498456115.6,286047008.6,N
1498456135.4,286047010.3,N
1498456155.3,286047012.8,N
1498456175.1,286047011.5,N
1498456176.0,286047011.5,N
1498456195.8,286047010.3,N
1498456215.7,286047008.7,N
1498456235.5,286047009.1,N
1498456255.3,286047008.1,N
1498456275.2,286047008.7,N
1498456295.0,286047008.8,N
1498456295.9,286047008.8,N
1498456315.8,286047010.1,N
1498456335.6,286047010.4,N
1498456355.4,286047009.7,N
1498456375.3,286047009.9,N
1498456395.1,286047013.1,N
1498456415.9,286047013.4,N
1498456435.7,286047013.2,N
1498456455.5,286047011.6,N
1498456475.4,286047011.0,N
1498456495.2,286047011.1,N
1498456515.0,286047011.0,N
1498456515.9,286047011.0,N
1498456535.8,286047012.3,N
1498456555.6,286047008.1,N
1498456575.5,286047009.8,N
1498456595.3,286047012.1,N
1498456615.1,286047011.3,N
1498456635.9,286047009.5,N
1498456655.7,286047009.8,N
1498456675.6,286047007.9,N
1498456695.4,286047008.7,N
1498456715.2,286047008.3,N
1498456735.1,286047007.9,N
1498456736.0,286047007.9,N
1498456755.8,286047011.8,N
1498456775.6,286047009.4,N
1498456795.5,286047011.0,N
